Latest Coastal Weather Observations for Northern Endeavour (near 10.5S 126E)

IDD60701

Issued at 12:41 pm CST Sunday 29 March 2015 (issued every 10 minutes, with the page automatically refreshed every 10 minutes)

About coastal observations | Map of coastal stations | Coastal observations for NT | Marine services | Other Formats
Station Details ID: 200212 Name: NORTHERN ENDEAVOUR Lat: -10.61 Lon: 125.98 Height: 16.0 m
Data from the previous 72 hours. | See also: Recent months for locations in Northern Territory
Date/Time
CST
Temp

°C
Wind Pressure Rain
since 9am
mm
Weather Cloud Vis
km
Sea
Height
m
Swell
Dir
 
Speed
knots
Gust
knots
hPa Trend Height
m
Period
s
Dir
29/12:40pm 30.5 E 12 13 1012.2 - - - Partly cloudy 10 - - - -
29/12:30pm 30.2 E 9 12 1012.3 - - - Partly cloudy 10 - - - -
29/12:20pm 30.0 E 8 12 1012.5 - - - - 10 - - - -
29/12:10pm 30.2 E 9 10 1012.5 - - - - 10 - - - -
29/12:00pm 30.1 E 9 11 1012.6 - - - - 10 - - - -
29/11:50am 30.2 E 8 12 1012.8 - - - - 10 - - - -
29/11:40am 30.1 E 9 11 1012.8 - - - - 10 - - - -
29/11:30am 30.0 E 7 12 1012.9 - - - - 10 - - - -
29/11:20am 30.0 E 8 10 1013.0 - - - - 10 - - - -
29/11:10am 29.8 E 8 9 1013.0 - - - - 10 - - - -
29/10:50am 29.8 E 7 9 1013.0 - - - - 10 - - - -
29/10:40am 29.8 E 7 11 1013.2 - - - - 10 - - - -
29/10:30am 29.9 E 8 10 1013.2 - - - - 10 - - - -
29/10:20am 29.8 E 9 11 1013.1 - - - - 10 - - - -
29/10:10am 29.9 E 8 12 1013.2 - - - - 10 - - - -
29/10:00am 29.9 E 8 11 1013.1 - - - - 10 - - - -
29/09:50am 29.9 E 9 9 1013.0 - - - - 10 - - - -
29/09:40am 30.6 E 10 11 1012.9 - - - - 10 - - - -
29/09:30am 29.8 E 9 11 1012.9 - - - - 10 - - - -
29/09:20am 30.0 E 8 10 1013.0 - - - Partly cloudy 10 - - - -
29/09:10am 29.6 E 7 9 1012.9 - - - - 10 - - - -
29/09:00am 29.4 E 8 11 1012.8 - - - - 10 - - - -
29/08:50am 29.8 E 10 11 1012.7 - - - - 10 - - - -
29/08:40am 30.4 E 10 12 1012.5 - - - Partly cloudy 1 - - - -
29/08:30am 30.1 E 11 11 1012.3 - - - Partly cloudy 10 - - - -
29/08:20am 29.9 ENE 11 13 1012.2 - - - Partly cloudy 10 - - - -
29/08:10am 29.4 E 10 11 1012.2 - - - Partly cloudy 10 - - - -
29/08:00am 29.3 E 10 11 1012.0 - - - Partly cloudy 10 - - - -
29/07:50am 29.4 E 10 11 1011.9 - - - Partly cloudy 10 - - - -
29/07:40am 29.1 ENE 10 12 1011.7 - - - - 10 - - - -
29/07:30am 29.0 E 10 11 1011.6 - - - - 10 - - - -
29/07:20am 29.0 E 10 10 1011.5 - - - - 10 - - - -
29/07:10am 29.1 E 11 12 1011.4 - - - - 10 - - - -
29/07:00am 29.0 E 10 12 1011.4 - - - - 10 - - - -
29/06:50am 29.0 E 10 11 1011.3 - - - - 10 - - - -
29/06:40am 29.0 E 10 11 1011.2 - - - - 10 - - - -
29/06:30am 28.9 E 11 11 1011.1 - - - - 10 - - - -
29/06:20am 28.8 ENE 11 11 1011.1 - - - Partly cloudy 10 - - - -
29/06:10am 28.8 ENE 11 12 1010.9 - - - Partly cloudy 10 - - - -
29/06:00am 28.8 ENE 10 11 1010.7 - - - Partly cloudy 10 - - - -
29/05:50am 28.9 ENE 11 11 1010.7 - - - - 10 - - - -
29/05:40am 28.8 ENE 11 12 1010.4 - - - Partly cloudy 10 - - - -
29/05:30am 28.8 ENE 13 13 1010.3 - - - Partly cloudy 10 - - - -
29/05:20am 28.8 ENE 13 14 1010.1 - - - - 10 - - - -
29/05:10am 28.8 ENE 13 14 1009.8 - - - - 10 - - - -
29/05:00am 28.8 ENE 14 14 1009.6 - - - - 10 - - - -
29/04:50am 28.8 ENE 14 15 1009.6 - - - - 10 - - - -
29/04:40am 28.9 ENE 11 15 1009.6 - - - Partly cloudy 10 - - - -
29/04:30am 28.7 ENE 11 14 1009.7 - - - Partly cloudy 10 - - - -
29/04:20am 28.8 ENE 12 16 1009.8 - - - Partly cloudy 10 - - - -
29/04:10am 28.8 ENE 12 13 1009.9 - - - Partly cloudy 10 - - - -
29/04:00am 28.8 ENE 13 16 1009.8 - - - Partly cloudy 10 - - - -
29/03:50am 28.8 ENE 14 16 1009.8 - - - Partly cloudy 10 - - - -
29/03:40am 28.8 ENE 15 17 1009.9 - - - Partly cloudy 10 - - - -
29/03:30am 28.8 E 15 16 1009.9 - - - Partly cloudy 10 - - - -
29/03:20am 28.9 E 13 16 1009.9 - - - Partly cloudy 10 - - - -
29/03:10am 28.9 ENE 11 15 1010.0 - - - Partly cloudy 10 - - - -
29/03:00am 28.9 E 13 15 1010.1 - - - Partly cloudy 10 - - - -
29/02:50am 29.0 E 14 16 1010.1 - - - Partly cloudy 10 - - - -
29/02:40am 29.0 E 14 15 1010.1 - - - Partly cloudy 10 - - - -
29/02:30am 28.9 E 13 16 1010.2 - - - Partly cloudy 10 - - - -
29/02:20am 28.9 ENE 13 16 1010.4 - - - Partly cloudy 10 - - - -
29/02:10am 28.9 ENE 14 15 1010.4 - - - Partly cloudy 10 - - - -
29/02:00am 29.0 ENE 14 17 1010.5 - - - Partly cloudy 10 - - - -
29/01:50am 29.0 ENE 12 17 1010.7 - - - Partly cloudy 10 - - - -
29/01:40am 29.0 ENE 12 15 1010.8 - - - - 10 - - - -
29/01:30am 29.0 ENE 13 16 1010.9 - - - Partly cloudy 10 - - - -
29/01:20am 28.9 ENE 12 16 1011.0 - - - Partly cloudy 10 - - - -
29/01:10am 28.8 ENE 12 15 1011.1 - - - Partly cloudy 10 - - - -
29/01:00am 28.9 ENE 11 16 1011.3 - - - - 10 - - - -
29/12:50am 29.0 ENE 11 16 1011.3 - - - - 10 - - - -
29/12:40am 28.9 ENE 10 14 1011.4 - - - - 10 - - - -
29/12:30am 28.9 ENE 9 12 1011.6 - - - - 10 - - - -
29/12:20am 28.9 ENE 11 13 1011.6 - - - Partly cloudy 10 - - - -
29/12:10am 29.0 ENE 15 17 1011.7 - - - Partly cloudy 10 - - - -
29/12:00am 29.1 ENE 15 18 1011.7 - - - Partly cloudy 10 - - - -
 
Date/Time
CST
Temp

°C
Wind Pressure Rain
since 9am
mm
Weather Cloud Vis
km
Sea
Height
m
Swell
Dir
 
Speed
knots
Gust
knots
hPa Trend Height
m
Period
s
Dir
28/11:50pm 29.1 ENE 13 16 1011.8 - - - Partly cloudy 10 - - - -
28/11:40pm 29.1 ENE 13 16 1011.8 - - - Partly cloudy 10 - - - -
28/11:30pm 29.0 ENE 10 14 1012.1 - - - Partly cloudy 10 - - - -
28/11:20pm 28.9 E 10 13 1012.2 - - - Partly cloudy 10 - - - -
28/11:10pm 29.0 ENE 11 15 1012.3 - - - Partly cloudy 10 - - - -
28/11:00pm 28.9 E 10 14 1012.2 - - - - 10 - - - -
28/10:50pm 28.8 E 12 16 1012.1 - - - - 10 - - - -
28/10:40pm 28.9 E 14 14 1012.2 - - - Partly cloudy 10 - - - -
28/10:30pm 28.9 E 12 14 1012.3 - - - Partly cloudy 10 - - - -
28/10:20pm 29.2 E 12 13 1012.4 - - - Partly cloudy 10 - - - -
28/10:10pm 29.3 E 11 14 1012.6 - - - Partly cloudy 10 - - - -
28/10:00pm 28.9 E 10 11 1012.6 - - - Partly cloudy 10 - - - -
28/09:50pm 28.9 E 9 12 1012.4 - - - Partly cloudy 10 - - - -
28/09:40pm 28.8 E 10 12 1012.3 - - - Partly cloudy 10 - - - -
28/09:30pm 28.8 ENE 7 12 1012.3 - - - Partly cloudy 10 - - - -
28/09:20pm 28.6 E 8 11 1012.1 - - - Partly cloudy 10 - - - -
28/09:10pm 28.5 E 6 9 1012.0 - - - Partly cloudy 10 - - - -
28/09:00pm 28.4 E 5 9 1011.9 - - - Partly cloudy 10 - - - -
28/08:50pm 28.3 E 6 11 1011.9 - - - Partly cloudy 10 - - - -
28/08:40pm 27.7 E 11 10 1011.9 - - - Partly cloudy 10 - - - -
28/08:30pm 27.2 E 16 14 1011.7 - - - Partly cloudy 10 - - - -
28/08:20pm 28.4 ENE 20 23 1011.3 - - - Partly cloudy 10 - - - -
28/08:10pm 29.7 E 13 18 1011.3 - - - Partly cloudy 10 - - - -
28/08:00pm 29.9 E 12 13 1011.1 - - - Partly cloudy 10 - - - -
28/07:50pm 29.8 E 11 13 1011.0 - - - Partly cloudy 10 - - - -
28/07:40pm 29.7 E 11 12 1010.8 - - - Partly cloudy 10 - - - -
28/07:30pm 29.7 E 11 11 1010.5 - - - Partly cloudy 10 - - - -
28/07:20pm 29.6 E 10 11 1010.5 - - - Partly cloudy 10 - - - -
28/07:10pm 29.7 E 9 9 1010.6 - - - Partly cloudy 10 - - - -
28/07:00pm 29.8 E 10 10 1010.5 - - - Partly cloudy 10 - - - -
28/06:50pm 30.0 E 9 10 1010.5 - - - Partly cloudy 10 - - - -
28/06:40pm 30.1 E 9 10 1010.2 - - - - 10 - - - -
28/06:30pm 30.1 E 10 10 1010.1 - - - - 10 - - - -
28/06:20pm 30.5 E 10 11 1010.1 - - - - 10 - - - -
28/06:10pm 30.6 E 10 12 1010.0 - - - - 10 - - - -
28/06:00pm 30.8 E 11 11 1009.7 - - - Partly cloudy 10 - - - -
28/05:50pm 31.3 E 11 12 1009.7 - - - Partly cloudy 10 - - - -
28/05:40pm 31.5 E 12 14 1009.6 - - - Partly cloudy 10 - - - -
28/05:30pm 31.5 E 11 14 1009.8 - - - Partly cloudy 10 - - - -
28/05:20pm 31.3 E 11 15 1009.8 - - - Partly cloudy 10 - - - -
28/05:10pm 32.0 E 10 12 1009.8 - - - Partly cloudy 10 - - - -
28/05:00pm 32.2 E 9 9 1009.8 - - - Partly cloudy 10 - - - -
28/04:50pm 32.8 E 9 12 1009.7 - - - Partly cloudy 10 - - - -
28/04:40pm 32.1 ENE 10 13 1009.7 - - - Partly cloudy 10 - - - -
28/04:30pm 32.5 ENE 8 12 1009.8 - - - Partly cloudy 10 - - - -
28/04:20pm 32.3 ENE 8 11 1009.9 - - - Partly cloudy 10 - - - -
28/04:10pm 32.7 E 8 9 1010.0 - - - Partly cloudy 10 - - - -
28/04:00pm 32.9 E 9 11 1010.0 - - - Partly cloudy 10 - - - -
28/03:50pm 32.5 ENE 9 13 1010.0 - - - Partly cloudy 10 - - - -
28/03:40pm 32.9 ENE 8 11 1010.0 - - - Partly cloudy 10 - - - -
28/03:30pm 33.0 E 8 10 1009.9 - - - - 10 - - - -
28/03:20pm 33.3 E 5 6 1009.9 - - - - 10 - - - -
28/03:10pm 33.2 E 6 8 1010.0 - - - - 10 - - - -
28/03:00pm 33.0 E 8 9 1010.1 - - - - 10 - - - -
28/02:50pm 32.4 E 8 11 1010.1 - - - Partly cloudy 10 - - - -
28/02:10pm 30.8 ENE 7 9 1010.5 - - - Partly cloudy 10 - - - -
28/02:00pm 30.5 ENE 6 10 1010.7 - - - Partly cloudy 10 - - - -
28/01:50pm 30.2 ENE 5 6 1010.8 - - - Partly cloudy 10 - - - -
28/01:40pm 29.9 NE 7 9 1011.0 - - - Partly cloudy 10 - - - -
28/01:30pm 30.1 NE 7 10 1011.3 - - - Partly cloudy 10 - - - -
28/01:20pm 29.9 NE 6 10 1011.3 - - - Partly cloudy 10 - - - -
28/01:10pm 30.2 NE 7 9 1011.5 - - - Partly cloudy 10 - - - -
28/01:00pm 29.9 NE 6 9 1011.8 - - - Partly cloudy 10 - - - -
28/12:50pm 29.8 NNE 6 6 1011.9 - - - Partly cloudy 10 - - - -
28/12:40pm 29.3 NE 8 9 1012.2 - - - Partly cloudy 10 - - - -
28/12:30pm 29.6 NE 6 10 1012.4 - - - Partly cloudy 10 - - - -
28/12:20pm 29.6 NE 6 8 1012.5 - - - Partly cloudy 10 - - - -
28/12:10pm 29.5 NE 9 11 1012.5 - - - Partly cloudy 10 - - - -
28/12:00pm 29.6 NE 8 10 1012.6 - - - Partly cloudy 10 - - - -
28/11:50am 29.6 NE 7 9 1012.7 - - - Partly cloudy 10 - - - -
28/11:40am 29.5 ENE 6 9 1012.9 - - - Partly cloudy 10 - - - -
28/11:30am 29.7 ENE 6 9 1013.0 - - - Partly cloudy 10 - - - -
28/11:20am 29.5 ENE 5 7 1013.0 - - - Partly cloudy 10 - - - -
28/11:10am 29.2 NE 8 8 1013.0 - - - Partly cloudy 10 - - - -
28/10:50am 28.9 NE 6 9 1012.8 - - - Partly cloudy 10 - - - -
28/10:40am 29.1 ENE 8 7 1012.7 - - - Cloudy 10 - - - -
28/10:30am 29.1 NNE 8 8 1012.6 - - - Cloudy 10 - - - -
28/10:20am 28.8 NNE 10 11 1012.5 - - - Partly cloudy 10 - - - -
28/10:10am 29.0 NNE 9 12 1012.5 - - - Partly cloudy 10 - - - -
28/10:00am 29.1 NNE 9 11 1012.5 - - - Partly cloudy 10 - - - -
28/09:50am 28.9 NNE 10 10 1012.3 - - - Partly cloudy 10 - - - -
28/09:40am 28.9 NNE 10 11 1012.2 - - - Partly cloudy 10 - - - -
28/09:30am 29.0 NNE 8 11 1012.1 - - - Partly cloudy 10 - - - -
28/09:20am 29.0 NNE 8 10 1012.0 - - - Cloudy 10 - - - -
28/09:10am 28.8 NNE 7 11 1012.0 - - - Partly cloudy 10 - - - -
28/09:00am 28.8 NNE 8 12 1011.9 - - - Cloudy 10 - - - -
28/08:50am 28.6 NNE 8 12 1012.0 - - - Cloudy 10 - - - -
28/08:40am 28.2 NNE 9 12 1011.8 - - - Partly cloudy 10 - - - -
28/08:30am 27.8 NNE 9 11 1011.7 - - - Partly cloudy 10 - - - -
28/08:20am 27.8 NNE 8 12 1011.7 - - - Partly cloudy 10 - - - -
28/08:10am 27.6 NNE 10 13 1011.7 - - - Partly cloudy 10 - - - -
28/08:00am 27.7 NNE 12 14 1011.5 - - - Partly cloudy 10 - - - -
28/07:50am 28.0 NE 10 14 1011.2 - - - Partly cloudy 10 - - - -
28/07:40am 28.0 NE 12 14 1011.3 - - - Partly cloudy 10 - - - -
28/07:30am 28.0 NNE 14 14 1011.2 - - - Partly cloudy 10 - - - -
28/07:20am 27.6 NNE 15 18 1011.2 - - - Partly cloudy 10 - - - -
28/07:10am 27.6 NNE 18 19 1011.1 - - - Partly cloudy 10 - - - -
28/07:00am 27.4 NNE 21 21 1010.9 - - - Partly cloudy 10 - - - -
28/06:50am 27.5 NNE 18 21 1010.9 - - - Partly cloudy 10 - - - -
28/06:40am 27.1 NNE 20 22 1010.9 - - - Partly cloudy 10 - - - -
28/06:30am 27.3 NNE 16 18 1010.6 - - - Partly cloudy 10 - - - -
28/06:20am 27.8 NNE 16 17 1010.5 - - - Partly cloudy 10 - - - -
28/06:10am 27.6 NNE 16 17 1010.5 - - - Partly cloudy 10 - - - -
28/06:00am 27.6 N 12 13 1010.7 - - - Partly cloudy 10 - - - -
28/05:50am 27.2 N 13 14 1010.7 - - - Partly cloudy 10 - - - -
28/05:40am 27.2 N 15 17 1010.4 - - - Partly cloudy 10 - - - -
28/05:30am 27.6 - 11 15 1010.3 - - - Partly cloudy 10 - - - -
28/05:20am 27.7 NNE 12 15 1010.3 - - - Partly cloudy 10 - - - -
28/05:10am 28.7 NE 10 14 1010.3 - - - Partly cloudy 10 - - - -
28/05:00am 28.6 NE 13 14 1010.5 - - - Partly cloudy 10 - - - -
28/04:50am 28.3 NE 13 18 1010.1 - - - Partly cloudy 10 - - - -
28/04:40am 28.0 NE 14 17 1010.4 - - - Partly cloudy 10 - - - -
28/04:30am 28.8 ENE 11 20 1010.1 - - - Partly cloudy 10 - - - -
28/04:20am 28.1 ENE 10 12 1010.2 - - - Cloudy 10 - - - -
28/04:10am 27.8 ENE 12 12 1010.4 - - - Partly cloudy 10 - - - -
28/04:00am 27.3 E 11 14 1010.3 - - - Partly cloudy 10 - - - -
28/03:50am 27.2 E 15 16 1010.5 - - - Partly cloudy 10 - - - -
28/03:40am 27.3 ENE 13 15 1010.5 - - - Partly cloudy 10 - - - -
28/03:30am 26.9 ENE 17 16 1010.9 - - - Partly cloudy 10 - - - -
28/03:20am 27.2 ENE 21 21 1010.7 - - - Partly cloudy 10 - - - -
28/03:10am 27.7 NE 23 25 1010.7 - - - Partly cloudy 10 - - - -
28/03:00am 28.9 NE 16 24 1010.9 - - - Partly cloudy 10 - - - -
28/02:50am 28.7 NE 13 13 1010.9 - - - Partly cloudy 10 - - - -
28/02:40am 27.9 NE 11 13 1011.1 - - - Partly cloudy 10 - - - -
28/02:30am 27.7 ENE 8 12 1011.1 - - - Partly cloudy 10 - - - -
28/02:20am 27.5 E 9 9 1011.2 - - - Partly cloudy 10 - - - -
28/02:10am 27.1 E 11 11 1011.1 - - - Partly cloudy 10 - - - -
28/02:00am 27.0 ENE 12 13 1011.2 - - - Partly cloudy 10 - - - -
28/01:50am 26.8 ENE 12 15 1011.3 - - - Cloudy 10 - - - -
28/01:40am 26.5 E 16 15 1011.7 - - - Cloudy 10 - - - -
28/01:30am 27.2 ENE 22 19 1011.9 - - - Partly cloudy 10 - - - -
28/01:20am 27.8 NE 20 25 1011.8 - - - Partly cloudy 10 - - - -
28/01:10am 27.4 - 13 19 1012.0 - - - Partly cloudy 10 - - - -
28/01:00am 27.3 N 12 13 1012.1 - - - Partly cloudy 10 - - - -
28/12:50am 27.3 NNW 8 12 1012.4 - - - Partly cloudy 10 - - - -
28/12:40am 27.1 NNW 10 9 1012.1 - - - Partly cloudy 10 - - - -
28/12:30am 26.9 N 11 11 1012.4 - - - Partly cloudy 10 - - - -
28/12:20am 27.3 N 14 14 1012.3 - - - Partly cloudy 10 - - - -
28/12:10am 27.4 N 16 18 1012.4 - - - Partly cloudy 10 - - - -
28/12:00am 26.5 NNW 14 17 1012.4 - - - Partly cloudy 10 - - - -
 
Date/Time
CST
Temp

°C
Wind Pressure Rain
since 9am
mm
Weather Cloud Vis
km
Sea
Height
m
Swell
Dir
 
Speed
knots
Gust
knots
hPa Trend Height
m
Period
s
Dir
27/11:50pm 27.9 - 14 16 1012.3 - - - Partly cloudy 10 - - - -
27/11:40pm 29.2 NE 8 10 1012.3 - - - Partly cloudy 10 - - - -
27/11:30pm 29.2 NE 6 7 1012.3 - - - Partly cloudy 10 - - - -
27/11:20pm 29.2 NE 6 7 1012.2 - - - Partly cloudy 10 - - - -
27/11:10pm 29.2 NNE 5 6 1012.3 - - - - 10 - - - -
27/11:00pm 29.2 NNE 8 8 1012.4 - - - - 10 - - - -
27/10:50pm 29.1 NE 8 8 1012.3 - - - - 10 - - - -
27/10:40pm 29.2 NNE 7 10 1012.1 - - - - 10 - - - -
27/10:30pm 29.2 NNE 6 8 1012.0 - - - - 10 - - - -
27/10:20pm 29.2 NNE 5 7 1012.1 - - - - 10 - - - -
27/10:10pm 29.2 NE 6 6 1012.0 - - - - 10 - - - -
27/10:00pm 29.2 NE 6 9 1011.9 - - - - 10 - - - -
27/09:50pm 29.2 NNE 7 10 1011.8 - - - - 10 - - - -
27/09:40pm 29.2 NE 6 7 1011.8 - - - - 10 - - - -
27/09:30pm 29.2 NNE 8 8 1011.8 - - - - 10 - - - -
27/09:20pm 29.3 NNE 8 8 1011.6 - - - - 10 - - - -
27/09:10pm 29.4 N 7 9 1011.5 - - - - 10 - - - -
27/09:00pm 29.5 NNE 7 7 1011.5 - - - - 10 - - - -
27/08:50pm 29.4 NNE 6 8 1011.5 - - - - 10 - - - -
27/08:40pm 29.4 NNE 7 11 1011.3 - - - - 10 - - - -
27/08:30pm 29.4 NNE 7 9 1011.1 - - - - 10 - - - -
27/08:20pm 29.4 NNE 7 12 1011.1 - - - - 10 - - - -
27/08:10pm 29.5 N 4 6 1011.1 - - - - 10 - - - -
27/08:00pm 29.6 N 6 9 1011.1 - - - - 10 - - - -
27/07:50pm 29.7 N 7 10 1011.0 - - - - 10 - - - -
27/07:40pm 29.6 - 5 6 1010.9 - - - Partly cloudy 10 - - - -
27/07:30pm 29.8 N 6 8 1010.7 - - - Partly cloudy 10 - - - -
27/07:20pm 29.9 N 7 8 1010.7 - - - Partly cloudy 10 - - - -
27/07:10pm 30.0 N 7 7 1010.6 - - - Partly cloudy 10 - - - -
27/07:00pm 30.2 N 7 9 1010.6 - - - Partly cloudy 10 - - - -
27/06:50pm 30.2 N 6 7 1010.6 - - - Partly cloudy 10 - - - -
27/06:40pm 30.3 N 6 9 1010.4 - - - - 10 - - - -
27/06:30pm 30.4 N 7 10 1010.3 - - - - 10 - - - -
27/06:20pm 30.6 N 7 10 1010.2 - - - - 10 - - - -
27/06:10pm 30.3 N 7 12 1010.2 - - - - 10 - - - -
27/06:00pm 30.5 N 5 9 1010.2 - - - - 10 - - - -
27/05:50pm 30.5 - 3 4 1010.2 - - - Partly cloudy 10 - - - -
27/05:40pm 30.7 N 3 5 1010.0 - - - Partly cloudy 10 - - - -
27/05:30pm 31.0 N 5 9 1009.9 - - - Partly cloudy 10 - - - -
27/05:20pm 30.9 N 3 4 1010.0 - - - Partly cloudy 10 - - - -
27/05:10pm 31.2 NNW 3 5 1009.8 - - - Partly cloudy 10 - - - -
27/05:00pm 32.0 NW 5 6 1009.9 - - - - 10 - - - -
27/04:50pm 32.0 NW 6 6 1009.6 - - - Partly cloudy 10 - - - -
27/04:40pm 31.3 NW 7 7 1009.6 - - - Partly cloudy 10 - - - -
27/04:30pm 31.3 NW 6 6 1009.6 - - - Partly cloudy 10 - - - -
27/04:20pm 31.7 NW 7 7 1009.5 - - - Partly cloudy 10 - - - -
27/04:10pm 31.5 NW 6 7 1009.4 - - - - 10 - - - -
27/04:00pm 32.2 NW 6 6 1009.5 - - - Partly cloudy 10 - - - -
27/03:50pm 31.5 NW 7 8 1009.5 - - - Partly cloudy 10 - - - -
27/03:40pm 32.4 NW 7 8 1009.5 - - - Partly cloudy 10 - - - -
27/03:30pm 32.5 NNW 8 9 1009.6 - - - Partly cloudy 10 - - - -
27/03:20pm 31.7 NW 9 8 1009.7 - - - Partly cloudy 10 - - - -
27/03:10pm 31.5 NW 9 10 1009.8 - - - Partly cloudy 10 - - - -
27/03:00pm 30.8 NW 8 9 1010.0 - - - Partly cloudy 10 - - - -
27/02:50pm 30.5 NW 7 8 1010.1 - - - Partly cloudy 10 - - - -
27/02:40pm 30.1 NW 6 10 1010.1 - - - - 10 - - - -
27/02:30pm 30.9 NW 9 10 1010.2 - - - - 10 - - - -
27/02:20pm 31.1 NW 10 10 1010.3 - - - - 10 - - - -
27/02:10pm 32.7 NW 11 11 1010.3 - - - - 10 - - - -
27/02:00pm 31.5 NW 10 12 1010.5 - - - - 10 - - - -
27/01:50pm 30.0 WNW 8 10 1010.7 - - - - 10 - - - -
27/01:40pm 29.4 WNW 10 13 1010.8 - - - - 10 - - - -
27/01:30pm 29.2 WNW 9 11 1011.1 - - - Partly cloudy 10 - - - -
27/01:20pm 29.2 WNW 10 11 1011.3 - - - Partly cloudy 10 - - - -
27/01:10pm 29.7 NW 8 13 1011.5 - - - Partly cloudy 10 - - - -
27/01:00pm 30.1 NW 10 10 1011.6 - - - Partly cloudy 10 - - - -
27/12:50pm 30.0 NW 9 11 1011.7 - - - Partly cloudy 10 - - - -
27/12:40pm 29.8 WNW 8 11 1011.8 - - - Partly cloudy 10 - - - -
27/12:30pm 29.8 NW 7 9 1012.0 - - - - 10 - - - -
27/12:20pm 29.8 NW 6 7 1012.1 - - - - 10 - - - -
27/12:10pm 30.1 NW 9 9 1012.3 - - - - 10 - - - -
27/12:00pm 30.8 NW 9 11 1012.4 - - - - 10 - - - -
27/11:50am 29.7 WNW 6 8 1012.5 - - - - 10 - - - -
27/11:40am 30.0 NW 8 10 1012.6 - - - - 10 - - - -
27/11:30am 29.5 WNW 10 11 1012.8 - - - - 10 - - - -
27/11:20am 29.2 WNW 11 12 1012.8 - - - - 10 - - - -
27/10:50am 28.9 WNW 7 12 1013.0 - - - - 10 - - - -
27/10:40am 28.8 WNW 10 10 1013.0 - - - - 10 - - - -
27/10:30am 28.8 WNW 8 12 1013.0 - - - - 10 - - - -
27/10:20am 29.1 WNW 10 12 1013.0 - - - - 10 - - - -
27/10:10am 28.8 WNW 11 13 1012.8 - - - - 10 - - - -
27/10:00am 28.8 WNW 10 13 1012.7 - - - - 10 - - - -
27/09:50am 28.8 W 10 12 1012.7 - - - - 10 - - - -
27/09:40am 29.2 WNW 9 10 1012.8 - - - Partly cloudy 10 - - - -
27/09:30am 29.5 WNW 12 12 1012.7 - - - Partly cloudy 10 - - - -
27/09:20am 29.5 WNW 11 13 1012.7 - - - Partly cloudy 10 - - - -
27/09:10am 29.8 W 12 13 1012.7 - - - Partly cloudy 10 - - - -
27/09:00am 30.1 W 12 12 1012.5 - - - Partly cloudy 10 - - - -
27/08:50am 30.2 W 12 12 1012.5 - - - Partly cloudy 10 - - - -
27/08:40am 30.0 W 13 14 1012.4 - - - - 10 - - - -
27/08:30am 29.8 W 13 15 1012.4 - - - Partly cloudy 10 - - - -
27/08:20am 29.6 W 14 15 1012.1 - - - Partly cloudy 10 - - - -
27/08:10am 29.4 WNW 14 14 1011.9 - - - Partly cloudy 10 - - - -
27/08:00am 29.0 WNW 14 15 1011.8 - - - Partly cloudy 10 - - - -
27/07:50am 28.8 WNW 13 15 1011.6 - - - Partly cloudy 10 - - - -
27/07:40am 28.7 WNW 12 14 1011.7 - - - - 10 - - - -
27/07:30am 28.7 WNW 12 13 1011.7 - - - - 10 - - - -
27/07:20am 28.8 WNW 12 14 1011.7 - - - - 10 - - - -
27/07:10am 28.6 WNW 12 14 1011.6 - - - - 10 - - - -
27/07:00am 28.6 WNW 11 12 1011.4 - - - - 10 - - - -
27/06:50am 28.6 WNW 11 13 1011.5 - - - - 10 - - - -
27/06:40am 28.6 WNW 11 13 1011.3 - - - - 10 - - - -
27/06:30am 28.8 WNW 12 12 1011.2 - - - - 10 - - - -
27/06:20am 28.8 WNW 11 13 1011.0 - - - - 10 - - - -
27/06:10am 28.8 WNW 11 14 1011.0 - - - - 10 - - - -
27/06:00am 28.7 W 11 13 1011.0 - - - - 10 - - - -
27/05:50am 28.6 WNW 12 13 1011.0 - - - - 10 - - - -
27/05:40am 28.5 WNW 14 15 1010.8 - - - - 10 - - - -
27/05:30am 28.8 WNW 15 15 1010.6 - - - - 10 - - - -
27/05:20am 28.7 WNW 14 16 1010.5 - - - - 10 - - - -
27/05:10am 29.0 W 15 15 1010.5 - - - - 10 - - - -
27/05:00am 29.4 W 15 17 1010.7 - - - - 10 - - - -
27/04:50am 29.3 W 15 16 1010.8 - - - - 10 - - - -
27/04:40am 29.2 W 14 15 1010.8 - - - - 10 - - - -
27/04:30am 28.8 W 14 16 1010.8 - - - - 10 - - - -
27/04:20am 28.3 W 16 16 1010.9 - - - - 10 - - - -
27/04:10am 28.5 W 16 17 1010.9 - - - - 10 - - - -
27/04:00am 28.9 W 18 17 1011.0 - - - - 10 - - - -
27/03:50am 29.5 W 16 18 1011.1 - - - - 10 - - - -
27/03:40am 29.0 W 15 18 1011.2 - - - Partly cloudy 10 - - - -
27/03:30am 28.5 W 14 15 1011.3 - - - Partly cloudy 10 - - - -
27/03:20am 28.5 WSW 14 16 1011.5 - - - Partly cloudy 10 - - - -
27/03:10am 28.7 W 14 15 1011.5 - - - Partly cloudy 10 - - - -
27/03:00am 29.1 W 15 16 1011.5 - - - Partly cloudy 10 - - - -
27/02:50am 29.3 W 15 17 1011.5 - - - Partly cloudy 10 - - - -
27/02:40am 29.5 W 15 17 1011.5 - - - Partly cloudy 10 - - - -
27/02:30am 29.6 W 16 16 1011.7 - - - Partly cloudy 10 - - - -
27/02:20am 29.6 W 15 18 1011.8 - - - Partly cloudy 10 - - - -
27/02:10am 28.5 W 11 15 1011.8 - - - - 10 - - - -
27/02:00am 28.4 W 10 11 1011.9 - - - Partly cloudy 10 - - - -
27/01:50am 28.3 W 10 10 1011.9 - - - Partly cloudy 10 - - - -
27/01:40am 28.3 W 10 11 1012.0 - - - Partly cloudy 10 - - - -
27/01:30am 28.0 W 11 11 1012.0 - - - Partly cloudy 10 - - - -
27/01:20am 27.7 WSW 14 13 1012.1 - - - Partly cloudy 10 - - - -
27/01:10am 27.4 WSW 17 17 1012.3 - - - Partly cloudy 10 - - - -
27/01:00am 28.0 W 19 21 1012.5 - - - Partly cloudy 3 - - - -
27/12:50am 28.5 W 8 18 1012.7 - - - Partly cloudy 10 - - - -
27/12:40am 28.2 WNW 7 8 1012.7 - - - Partly cloudy 10 - - - -
27/12:30am 28.3 NW 6 7 1012.7 - - - Partly cloudy 10 - - - -
27/12:20am 28.3 NW 5 6 1013.0 - - - Partly cloudy 10 - - - -
27/12:10am 28.4 WNW 5 5 1013.3 - - - Partly cloudy 10 - - - -
27/12:00am 28.4 WNW 5 6 1013.4 - - - Partly cloudy 10 - - - -
 
Date/Time
CST
Temp

°C
Wind Pressure Rain
since 9am
mm
Weather Cloud Vis
km
Sea
Height
m
Swell
Dir
 
Speed
knots
Gust
knots
hPa Trend Height
m
Period
s
Dir
26/11:50pm 28.4 W 4 4 1013.4 - - - Partly cloudy 10 - - - -
26/11:40pm 28.5 W 4 4 1013.5 - - - Partly cloudy 10 - - - -
26/11:30pm 28.5 WSW 5 4 1013.5 - - - Partly cloudy 10 - - - -
26/11:20pm 28.5 SW 4 5 1013.5 - - - - 10 - - - -
26/11:10pm 28.4 SW 4 4 1013.4 - - - - 10 - - - -
26/11:00pm 28.4 SW 3 4 1013.3 - - - - 10 - - - -
26/10:50pm 28.4 SW 4 4 1013.3 - - - - 10 - - - -
26/10:40pm 28.4 SW 4 4 1013.4 - - - - 10 - - - -
26/10:30pm 28.4 SSW 5 5 1013.3 - - - - 10 - - - -
26/10:20pm 28.4 SSW 5 7 1013.1 - - - Partly cloudy 10 - - - -
26/10:10pm 28.3 SW 4 6 1013.0 - - - Partly cloudy 10 - - - -
26/10:00pm 28.4 SW 4 4 1013.0 - - - Partly cloudy 10 - - - -
26/09:50pm 28.5 SW 4 5 1013.0 - - - Partly cloudy 10 - - - -
26/09:40pm 28.6 SW 4 6 1013.1 - - - Partly cloudy 10 - - - -
26/09:30pm 28.5 SW 4 4 1013.0 - - - Partly cloudy 10 - - - -
26/09:20pm 28.5 SW 4 5 1012.8 - - - Partly cloudy 10 - - - -
26/09:10pm 28.4 SW 3 4 1012.6 - - - Partly cloudy 10 - - - -
26/09:00pm 28.4 SW 3 2 1012.4 - - - Partly cloudy 10 - - - -
26/08:50pm 28.4 SW 4 5 1012.4 - - - Partly cloudy 10 - - - -
26/08:40pm 28.4 WSW 3 4 1012.2 - - - Partly cloudy 10 - - - -
26/08:30pm 28.4 W 3 4 1012.2 - - - Partly cloudy 10 - - - -
26/08:20pm 28.5 W 4 5 1012.1 - - - - 10 - - - -
26/08:10pm 28.4 W 4 5 1012.0 - - - - 10 - - - -
26/08:00pm 28.5 W 4 5 1011.9 - - - - 10 - - - -
26/07:50pm 28.6 W 6 8 1011.8 - - - - 10 - - - -
26/07:40pm 28.6 W 7 8 1011.6 - - - Partly cloudy 10 - - - -
26/07:30pm 28.6 W 7 8 1011.5 - - - Partly cloudy 10 - - - -
26/07:20pm 28.6 W 7 9 1011.4 - - - Partly cloudy 10 - - - -
26/07:10pm 28.6 W 7 8 1011.3 - - - - 10 - - - -
26/07:00pm 28.6 W 8 9 1011.1 - - - - 10 - - - -
26/06:50pm 28.7 W 9 8 1011.0 - - - - 10 - - - -
26/06:40pm 28.8 W 9 10 1010.9 - - - - 10 - - - -
26/06:30pm 28.9 W 9 10 1010.8 - - - - 10 - - - -
26/06:20pm 29.0 W 8 9 1010.7 - - - - 10 - - - -
26/06:10pm 29.0 W 8 11 1010.5 - - - - 10 - - - -
26/06:00pm 29.1 W 8 11 1010.4 - - - - 10 - - - -
26/05:50pm 29.4 W 6 11 1010.3 - - - - 10 - - - -
26/05:40pm 29.5 W 6 8 1010.1 - - - - 10 - - - -
26/05:30pm 29.7 W 8 9 1010.2 - - - - 10 - - - -
26/05:20pm 30.0 W 8 11 1010.1 - - - - 10 - - - -
26/05:10pm 30.0 W 7 9 1010.1 - - - - 10 - - - -
26/05:00pm 29.9 W 7 9 1010.1 - - - Partly cloudy 10 - - - -
26/04:50pm 29.9 W 9 11 1010.1 - - - Partly cloudy 9 - - - -
26/04:40pm 30.3 W 10 12 1010.2 - - - Partly cloudy 10 - - - -
26/04:30pm 30.2 W 10 11 1010.1 - - - Partly cloudy 10 - - - -
26/04:20pm 30.3 W 9 9 1010.1 - - - Partly cloudy 10 - - - -
26/04:10pm 30.4 W 7 11 1010.0 - - - Partly cloudy 10 - - - -
26/03:50pm 29.0 WNW 6 6 1009.9 - - - Partly cloudy 10 - - - -
26/03:40pm 29.0 WNW 7 9 1010.0 - - - Partly cloudy 10 - - - -
26/03:30pm 29.0 W 7 8 1010.1 - - - Partly cloudy 10 - - - -
26/03:20pm 29.2 W 8 11 1010.4 - - - Partly cloudy 10 - - - -
26/03:10pm 28.8 W 9 10 1010.5 - - - Partly cloudy 10 - - - -
26/03:00pm 28.5 W 12 13 1010.7 - - - Partly cloudy 10 - - - -
26/02:50pm 29.9 SW 11 12 1010.9 - - - Partly cloudy 10 - - - -
26/02:40pm 30.8 SW 11 12 1011.0 - - - Partly cloudy 10 - - - -
26/02:30pm 31.6 SSW 12 13 1011.1 - - - Partly cloudy 10 - - - -
26/02:20pm 31.5 SSW 10 12 1011.0 - - - Partly cloudy 10 - - - -
26/02:10pm 31.3 SSW 12 13 1011.1 - - - Partly cloudy 10 - - - -
26/02:00pm 31.0 SSW 12 14 1011.2 - - - Partly cloudy 10 - - - -
26/01:50pm 30.8 S 12 13 1011.4 - - - Partly cloudy 10 - - - -
26/01:40pm 30.8 S 10 10 1011.6 - - - Partly cloudy 10 - - - -
26/01:30pm 30.9 S 12 13 1011.6 - - - Partly cloudy 10 - - - -
26/01:20pm 29.0 S 8 13 1011.7 - - - Partly cloudy 10 - - - -
26/01:10pm 29.6 S 11 10 1012.0 - - - Partly cloudy 10 - - - -
26/01:00pm 29.5 S 12 14 1012.2 - - - Partly cloudy 10 - - - -
26/12:50pm 29.2 S 12 13 1012.0 - - - Partly cloudy 10 - - - -

Other Formats:

Comma delimited format used in spreadsheet applications
http://www.bom.gov.au/fwo/IDD60701/IDD60701.95100.axf

JavaScript Object Notation format (JSON) in row-major order
http://www.bom.gov.au/fwo/IDD60701/IDD60701.95100.json